Weather History for KTVL - December, 2011

Change the Weather History Date:

Sunday, December 4, 2011

  Actual Average Record
Temperature  
Mean Temperature 30 °F 31 °F  
Max Temperature 46 °F 44 °F 59 °F (1979)
Min Temperature 13 °F 18 °F -2 °F (2001)
Degree Days  
Heating Degree Days 35 34  
Month to date heating degree days 135 134  
Since 1 July heating degree days 1921 2227  
Cooling Degree Days 0 0  
Month to date cooling degree days 0 0  
Year to date cooling degree days 19 31  
Moisture  
Dew Point 11 °F    
Average Humidity 48    
Maximum Humidity 67    
Minimum Humidity 28    
Precipitation  
Precipitation 0.00 in - - ()
Month to date precipitation 0.00  
Year to date precipitation 15.57  
Snow  
Snow 0.00 in - - ()
Month to date snowfall 0.0  
Snow Depth 0.00 in    
Sea Level Pressure  
Sea Level Pressure 30.28 in    
Wind  
Wind Speed 3 mph (SSW)    
Max Wind Speed 15 mph    
Max Gust Speed 22 mph    
Visibility 10 miles    
Events      
T = Trace of Precipitation, MM = Missing Value Source: NWS Daily Summary

Daily Weather History Graph

Daily Weather History Graph

Search for Another Location

Airport or City:

Trip Planner

Search our weather history database for the weather conditions in past years. The results will help you decide how hot, cold, wet, or windy it might be!

Date:

Astronomy

Dec. 04, 2011 Rise Set
Actual Time 7:02 AM PST 4:37 PM PST
Civil Twilight 6:32 AM PST 5:07 PM PST
Nautical Twilight 5:59 AM PST 5:40 PM PST
Astronomical Twilight 5:27 AM PST 6:12 PM PST
Moon 1:08 PM PST (12/4) 1:34 AM PST (12/4)
Length of Visible Light 10h 34m
Length of Day
9h 35m
Waxing Gibbous, 72% of the Moon is Illuminated
Dec 4
Waxing Gibbous
Dec 10
Full
Dec 17
Last Quarter
Dec 24
New
Dec 31
First Quarter

Hourly Weather History & Observations

Time (PST) Temp. Windchill Dew Point Humidity Pressure Visibility Wind Dir Wind Speed Gust Speed Precip Events Conditions
12:53 AM 17.1 °F - 5.0 °F 59% 30.38 in 9.0 mi Calm Calm - N/A   Clear
1:53 AM 16.0 °F - 5.0 °F 62% 30.36 in 7.0 mi Calm Calm - N/A   Clear
2:53 AM 16.0 °F - 3.9 °F 59% 30.34 in 10.0 mi Calm Calm - N/A   Clear
3:53 AM 14.0 °F 8.2 °F 3.9 °F 64% 30.35 in 9.0 mi SSW 3.5 mph - N/A   Clear
4:53 AM 14.0 °F 8.2 °F 3.9 °F 64% 30.36 in 10.0 mi SSW 3.5 mph - N/A   Clear
5:53 AM 14.0 °F - 3.9 °F 64% 30.34 in 10.0 mi Calm Calm - N/A   Clear
6:53 AM 12.9 °F 6.9 °F 3.9 °F 67% 30.35 in 10.0 mi SSW 3.5 mph - N/A   Clear
7:53 AM 14.0 °F 6.5 °F 5.0 °F 67% 30.36 in 9.0 mi South 4.6 mph - N/A   Clear
8:53 AM 25.0 °F 19.3 °F 10.0 °F 53% 30.35 in 10.0 mi South 4.6 mph - N/A   Clear
9:53 AM 36.0 °F - 15.1 °F 43% 30.28 in 10.0 mi Calm Calm - N/A   Clear
10:53 AM 41.0 °F 37.1 °F 15.1 °F 35% 30.26 in 10.0 mi ENE 5.8 mph - N/A   Clear
11:53 AM 43.0 °F 41.3 °F 16.0 °F 34% 30.24 in 10.0 mi Variable 3.5 mph - N/A   Clear
12:53 PM 44.1 °F 41.5 °F 16.0 °F 32% 30.19 in 10.0 mi Variable 4.6 mph - N/A   Clear
1:53 PM 46.0 °F - 17.1 °F 31% 30.17 in 10.0 mi Calm Calm - N/A   Clear
2:53 PM 46.0 °F 44.8 °F 16.0 °F 30% 30.17 in 10.0 mi Variable 3.5 mph - N/A   Clear
3:53 PM 37.9 °F - 18.0 °F 45% 30.21 in 10.0 mi Calm Calm - N/A   Clear
4:53 PM 37.0 °F 34.5 °F 12.9 °F 37% 30.22 in 10.0 mi Variable 3.5 mph - N/A   Clear
5:53 PM 30.0 °F 22.4 °F 10.9 °F 45% 30.28 in 10.0 mi North 8.1 mph - N/A   Clear
6:53 PM 36.0 °F 29.0 °F 12.0 °F 37% 30.28 in 10.0 mi North 9.2 mph 20.7 mph N/A   Clear
7:53 PM 33.1 °F 28.7 °F 14.0 °F 46% 30.27 in 10.0 mi Variable 4.6 mph - N/A   Clear
8:53 PM 32.0 °F 27.5 °F 14.0 °F 48% 30.25 in 10.0 mi NNW 4.6 mph - N/A   Clear
9:53 PM 30.0 °F - 12.9 °F 49% 30.24 in 10.0 mi Calm Calm - N/A   Clear
10:53 PM 30.2 °F - 12.2 °F 47% 30.22 in 10.0 mi Calm Calm - N/A   Clear
11:53 PM 30.0 °F 23.2 °F 12.0 °F 47% 30.18 in 10.0 mi Variable 6.9 mph 16.1 mph N/A   Clear